Content
SEND FEEDBACK

Daily
Averages
Monthly
Summary
United States of America

MERIZO, GUAM


Home > North America > United States > Guam
Elevation: 10 feet     Latitude: 13 14N     Longitude: 144 39E

WEATHER
 
SELECT A DAY
Number of Records: 351,620;   Date Range: 1/1/95 - 10/20/14
 
SHARE

PRINT THIS DATA

[ ← Previous Day ]
WEATHER ALMANAC - JULY 28, 2013
[ Next Day → ]
[ °C ]   °F
Weather ElementAverageHighLow
Temperature82.3 °F86.4 °F (10:55 am)79.9 °F (4:55 am)
Dewpoint75 °F79 °F (10:55 pm)61 °F (2:55 am)
Humidity79.4 %95 % (10:55 pm)51 % (2:55 am)
Barometer29.84 in29.88 in (9:55 pm)29.81 in (3:55 pm)
Wind Speed10.2 mph12.7 mph (2:55 pm)
Wind Gust17.3 mph (10:55 am)
Weather ElementAverage
Visibility10 mi
Wind DirectionENE (83.1 °)

Weather ElementTotal
Precipitation---
Cooling Degree Days18.2 (Base 65)
Growing Degree Days33.2 (Base 50)
Averaged from 39 records on July 28, 2013
WEATHER CONDITIONS BREAKOUT
WIND DIRECTION BREAKOUT
WEATHER BY HOUR - JULY 28, 2013
[ °C ]   °F
Local TimeTemperatureDewpointHumidityBarometerVisibilityWind DirectionWind SpeedGust SpeedPrecipitationEventsConditions
1:28 AM80.6 °F77.0 °F89 %29.84 in10.0 miEast (90°)11.5 mphMostly Cloudy
1:29 AM80.6 °F77.0 °F89 %29.84 in10.0 miEast (90°)11.5 mphScattered Clouds
1:55 AM80.8 °F77.4 °F89 %29.84 in10.0 miEast (100°)10.4 mphPartly Cloudy
2:55 AM80.6 °F61.0 °F51 %29.83 in10.0 miEast (90°)8.1 mphScattered Clouds
3:37 AM80.6 °F75.2 °F84 %29.83 in10.0 miEast (90°)8.1 mphMostly Cloudy
3:53 AM80.6 °F75.2 °F84 %29.83 in10.0 miEast (90°)10.4 mphScattered Clouds
3:55 AM80.6 °F75.0 °F83 %29.83 in10.0 miEast (90°)10.4 mphScattered Clouds
3:59 AM80.6 °F75.2 °F84 %29.83 in10.0 miEast (90°)10.4 mphMostly Cloudy
4:15 AM80.6 °F75.2 °F84 %29.83 in10.0 miEast (100°)8.1 mphRainLight Rain
4:28 AM80.6 °F75.2 °F84 %29.83 in10.0 miEast (90°)10.4 mphMostly Cloudy
4:31 AM80.6 °F75.2 °F84 %29.83 in10.0 miEast (90°)10.4 mphScattered Clouds
4:55 AM79.9 °F75.7 °F87 %29.83 in10.0 miEast (100°)11.5 mph0.00 inScattered Clouds
5:33 AM80.6 °F75.2 °F84 %29.84 in10.0 miEast (90°)10.4 mphMostly Cloudy
5:36 AM80.6 °F75.2 °F84 %29.84 in10.0 miEast (90°)10.4 mphScattered Clouds
5:55 AM80.4 °F75.4 °F85 %29.84 in10.0 miEast (100°)10.4 mphPartly Cloudy
6:55 AM81.1 °F75.0 °F82 %29.86 in10.0 miEast (90°)10.4 mphClear
7:55 AM83.5 °F73.0 °F71 %29.86 in10.0 miEast (100°)9.2 mphPartly Cloudy
8:55 AM84.4 °F71.2 °F65 %29.86 in10.0 miEast (100°)10.4 mphPartly Cloudy
9:55 AM85.3 °F70.3 °F61 %29.86 in10.0 miEast (80°)11.5 mphClear
10:55 AM86.4 °F72.9 °F64 %29.86 in10.0 miEast (90°)10.4 mph17.3 mphPartly Cloudy
11:55 AM86.0 °F73.2 °F65 %29.85 in10.0 miESE (110°)9.2 mphPartly Cloudy
12:55 PM86.2 °F72.1 °F63 %29.84 in10.0 miEast (90°)10.4 mphMostly Cloudy
1:55 PM85.5 °F72.7 °F65 %29.84 in10.0 miEast (90°)10.4 mphPartly Cloudy
2:55 PM86.4 °F74.3 °F67 %29.83 in10.0 miENE (70°)12.7 mphPartly Cloudy
3:06 PM86.0 °F75.2 °F70 %29.82 in10.0 miENE (70°)11.5 mphMostly Cloudy
3:09 PM86.0 °F73.4 °F66 %29.83 in10.0 miENE (70°)12.7 mphScattered Clouds
3:55 PM86.2 °F73.9 °F67 %29.81 in10.0 miENE (60°)11.5 mphPartly Cloudy
4:55 PM84.9 °F75.2 °F73 %29.82 in10.0 miEast (80°)10.4 mphPartly Cloudy
5:55 PM83.7 °F75.9 °F77 %29.83 in10.0 miENE (60°)10.4 mphClear
6:15 PM82.4 °F75.2 °F79 %29.83 in10.0 miEast (80°)11.5 mphRainLight Rain
6:27 PM82.4 °F77.0 °F84 %29.83 in10.0 miENE (60°)9.2 mphClear
6:55 PM80.8 °F76.5 °F87 %29.83 in10.0 miENE (70°)10.4 mph0.00 inClear
7:55 PM80.8 °F77.7 °F90 %29.85 in10.0 miENE (70°)9.2 mphClear
8:21 PM80.6 °F77.0 °F89 %29.86 in10.0 miENE (60°)9.2 mphMostly Cloudy
8:27 PM80.6 °F78.8 °F94 %29.86 in10.0 miENE (60°)9.2 mphScattered Clouds
8:55 PM80.4 °F77.5 °F91 %29.86 in10.0 miENE (70°)8.1 mphClear
9:55 PM80.4 °F77.5 °F91 %29.88 in10.0 miENE (70°)10.4 mphClear
10:55 PM80.6 °F79.0 °F95 %29.88 in10.0 miEast (80°)9.2 mphPartly Cloudy
11:55 PM80.2 °F78.8 °F95 %29.87 in10.0 miENE (70°)8.1 mphPartly Cloudy
Hourly data recorded from PGUA, located miles away from Merizo, Guam







STORIES FROM OUR PARTNERS